Location: La Pernelle
(49.6188°N, 1.2999°W)
Time: 16:56:42
(UTC+00:00)

SL-16 R/B - Pass Details

Date: 23 October 2021
Orbit: 842 x 846 km, 71.0° (Epoch: 28 November)

Event Time Altitude Azimuth Distance (km) Brightness Sun altitude
Exits shadow 03:19:09 51° 96° (E) 1,063 2.9 -32.6°
Drops below altitude 10° 03:23:44 10° 136° (SE) 2,465 4.8 -31.9°
Sets 03:26:13 0° 140° (SE) 3,396 5.6 -31.5°
